Weather History for Wisconsin Rapids, WI

Change the Weather History Date:

Thursday, September 5, 2013

  Actual Average Record
Temperature  
Mean Temperature 68 °F -  
Max Temperature 80 °F 75 °F 92 °F (1948)
Min Temperature 57 °F 50 °F 36 °F (1957)
Cooling Degree Days 3    
Growing Degree Days 18 (Base 50)    
Moisture  
Dew Point 51 °F    
Average Humidity 61    
Maximum Humidity 93    
Minimum Humidity 30    
Precipitation  
Precipitation 0.00 in - - ()
Sea Level Pressure  
Sea Level Pressure 30.24 in    
Wind  
Wind Speed 6 mph (ESE)    
Max Wind Speed 9 mph    
Max Gust Speed -    
Visibility 10 miles    
Events      
Averages and records for this station are not official NWS values.
T = Trace of Precipitation, MM = Missing Value Source: NWS Daily Summary

Daily Weather History Graph

Daily Weather History Graph

Search for Another Location

Airport:

Trip Planner

Search our weather history database for the weather conditions in past years. The results will help you decide how hot, cold, wet, or windy it might be!

Date:

Astronomy

Sep. 05, 2013 Rise Set
Actual Time 6:27 AM CDT 7:27 PM CDT
Civil Twilight 5:57 AM CDT 7:57 PM CDT
Nautical Twilight 5:21 AM CDT 8:32 PM CDT
Astronomical Twilight 4:44 AM CDT 9:09 PM CDT
Moon 6:41 AM CDT (9/5) 7:16 PM CDT (9/5)
Length of Visible Light 14h 00m
Length of Day
13h 00m
New Moon, 0% of the Moon is Illuminated
Sep 5
New Moon
Sep 12
First Quarter
Sep 19
Full
Sep 26
Last Quarter
Oct 4
New

Hourly Weather History & Observations

Time (CDT) Temp. Dew Point Humidity Pressure Visibility Wind Dir Wind Speed Gust Speed Precip Events Conditions
12:54 AM 63.0 °F 61.0 °F 93% 30.18 in 10.0 mi NE 5.8 mph - N/A   Partly Cloudy
1:54 AM 62.1 °F 60.1 °F 93% 30.19 in 10.0 mi ENE 3.5 mph - N/A   Mostly Cloudy
2:54 AM 62.1 °F 60.1 °F 93% 30.20 in 7.0 mi East 5.8 mph - N/A   Overcast
3:54 AM 62.1 °F 59.0 °F 90% 30.21 in 6.0 mi East 8.1 mph - N/A   Overcast
4:54 AM 61.0 °F 57.9 °F 90% 30.23 in 10.0 mi East 6.9 mph - N/A   Overcast
5:54 AM 59.0 °F 55.0 °F 87% 30.25 in 10.0 mi East 8.1 mph - N/A   Overcast
6:54 AM 57.0 °F 52.0 °F 83% 30.28 in 10.0 mi East 5.8 mph - N/A   Mostly Cloudy
7:54 AM 57.9 °F 50.0 °F 75% 30.30 in 10.0 mi East 8.1 mph - N/A   Overcast
8:54 AM 61.0 °F 46.9 °F 60% 30.31 in 10.0 mi ESE 9.2 mph - N/A   Scattered Clouds
9:54 AM 64.9 °F 46.9 °F 52% 30.31 in 10.0 mi East 9.2 mph - N/A   Clear
10:54 AM 66.9 °F 48.0 °F 51% 30.30 in 10.0 mi SSE 9.2 mph - N/A   Clear
11:54 AM 72.0 °F 48.0 °F 43% 30.31 in 10.0 mi East 6.9 mph - N/A   Clear
12:54 PM 73.9 °F 46.9 °F 38% 30.28 in 10.0 mi Variable 4.6 mph - N/A   Clear
1:54 PM 75.9 °F 46.0 °F 35% 30.26 in 10.0 mi Variable 4.6 mph - N/A   Clear
2:54 PM 78.1 °F 45.0 °F 31% 30.25 in 10.0 mi Variable 4.6 mph - N/A   Clear
3:54 PM 79.0 °F 45.0 °F 30% 30.22 in 10.0 mi Calm Calm - N/A   Clear
4:54 PM 79.0 °F 46.0 °F 31% 30.22 in 10.0 mi ESE 5.8 mph - N/A   Clear
5:54 PM 78.1 °F 46.9 °F 33% 30.21 in 10.0 mi SSE 4.6 mph - N/A   Clear
6:54 PM 75.0 °F 48.0 °F 38% 30.21 in 10.0 mi SE 6.9 mph - 0.00 in   Clear
7:54 PM 69.1 °F 52.0 °F 54% 30.22 in 10.0 mi ESE 8.1 mph - N/A   Clear
8:54 PM 66.0 °F 51.1 °F 59% 30.23 in 10.0 mi SE 8.1 mph - N/A   Clear
9:54 PM 63.0 °F 50.0 °F 63% 30.23 in 10.0 mi SE 4.6 mph - N/A   Clear
10:54 PM 62.1 °F 51.1 °F 67% 30.23 in 10.0 mi SE 6.9 mph - N/A   Clear
11:54 PM 60.1 °F 51.1 °F 72% 30.22 in 10.0 mi SSE 5.8 mph - N/A   Clear